Regional Weather Roundup
Issued by NWS Sterling, VA

Home | Current Version | Previous Version | Graphics & Text | Print | Product List | Glossary On
Versions: 1 2 3 4 5 6 7 8 9 10 11 12 13 14 15 16 17 18 19 20 21 22 23 24 25 26 27
000
ASUS41 KLWX 272211
RWRLWX

REGIONAL WEATHER ROUNDUP
NATIONAL WEATHER SERVICE BALTIMORE MD/WASHINGTON DC
600 PM EDT TUE JUN 27 2017

Note: "FAIR" indicates few or no clouds below 12,000 feet
with no significant weather and/or obstructions to visibility.
 TC=TEMPERATURE CELSIUS

 * =Non NWS site. Station does not report precipitation (e.g. rain,
    snow, etc.), thunder, or fog.

DCZ001-MDZ009-015-VAZ040>042-051-053>054-272300-
WASHINGTON METRO

CITY           SKY/WX    TMP DP  RH WIND       PRES   REMARKS
WASHINGTON NAT CLOUDY    79  50  36 W7        29.98F
DULLES         MOSUNNY   79  45  29 W12G18    29.99S
ANDREWS AFB    PTSUNNY   77  49  37 NW7       29.98S
FT BELVOIR     CLOUDY    80  47  30 W8        29.98S
QUANTICO       PTSUNNY   80  53  39 NW3       29.99S
COLLEGE PARK*  CLOUDY    79  45  30 SW5       29.98S
LEESBURG*      SUNNY     81  50  34 NW12      30.00F
MANASSAS*      CLOUDY    80  47  31 W8        29.99S
GAITHERSBURG*  MOSUNNY   77  48  35 W10G21    30.00S

$$

MDZ006>007-011-014-272300-
BALTIMORE METRO

CITY           SKY/WX    TMP DP  RH WIND       PRES   REMARKS
BWI AIRPORT    PTSUNNY   79  47  32 NW12G18   29.97S
MD SCIENCE CTR   N/A     80  45  28 MISG      29.97S
MARTIN STATE   PTSUNNY   81  48  32 W10       29.98S
ANNAPOLIS      CLOUDY    73  58  59 SW5       29.98S
FORT MEADE*    PTSUNNY   73  57  56 W5        30.00F

$$

MDZ012-015-019>023-272300-
MARYLAND EASTERN SHORE

CITY           SKY/WX    TMP DP  RH WIND       PRES   REMARKS
OCEAN CITY     MOSUNNY   75  59  57 SW6       29.98F
SALISBURY      PTSUNNY   76  55  48 W7        29.98R
BAY BRIDGE AP* MOSUNNY   77  61  57 S5        29.98F
CAMBRIDGE*     SUNNY     75  57  53 CALM      29.98F
EASTON*        PTSUNNY   77  50  38 NW9       30.02R

$$

MDZ017>025-272300-
SOUTHERN MARYLAND

CITY           SKY/WX    TMP DP  RH WIND       PRES   REMARKS
PATUXENT RIVER CLOUDY    76  57  51 E5        29.97F
ST INIGOES     LGT RAIN  76  59  55 NW3       29.97F
LEONARDTOWN*   CLOUDY    77  52  41 W3        29.99F

$$

MDZ003>005-272300-
NORTH CENTRAL MARYLAND

CITY           SKY/WX    TMP DP  RH WIND       PRES   REMARKS
FREDERICK*     MOSUNNY   79  37  22 NW15G21   30.02S
HAGERSTOWN APT MOSUNNY   75  48  38 NW15G24   30.01R
WESTMINSTER*   PTSUNNY   79  48  34 W13G20    30.00S

$$

MDZ501>502-272300-
WESTERN MARYLAND

CITY           SKY/WX    TMP DP  RH WIND       PRES   REMARKS
OAKLAND*       NOT AVBL
CUMBERLAND*    MOSUNNY   72  45  37 W7        30.09S

$$

VAZ025>031-272300-
SHENANDOAH VALLEY

CITY           SKY/WX    TMP DP  RH WIND       PRES   REMARKS
WINCHESTER*    SUNNY     73  43  33 NW10G22   30.01S
FRONT ROYAL*   MOSUNNY   77  45  31 NW10G17   30.00S
LURAY*         MOSUNNY   77  43  29 W5        30.01F
NEW MARKET*    SUNNY     76  39  26 W8        30.01F
STAUNTON*      MOSUNNY   74  42  31 W8        30.05F
WAYNESBORO*    MOSUNNY   72  44  37 CALM      30.05S

$$

WVZ021-048>050-054>055-272300-
EASTERN WEST VIRGINIA PANHANDLE

CITY           SKY/WX    TMP DP  RH WIND       PRES   REMARKS
MARTINSBURG    SUNNY     76  45  33 NW17G26   30.01R
PETERSBURG*    PTSUNNY   74  47  38 NW9       30.06S

$$

VAZ036>039-050-272300-
CENTRAL FOOTHILLS

CITY           SKY/WX    TMP DP  RH WIND       PRES   REMARKS
CHARLOTTESVILL SUNNY     80  42  25 W7        30.00F
CULPEPER*      PTSUNNY   80  48  32 NW5       29.99F
ORANGE*        CLOUDY    77  54  44 SW6       29.99F
GORDONSVILLE*  PTSUNNY   77  54  45 S3        30.00S
WARRENTON*     CLOUDY    82  39  21 W8        29.99F

$$

VAZ055>057-272300-
NORTH AND CENTRAL PIEDMONT

CITY           SKY/WX    TMP DP  RH WIND       PRES   REMARKS
FREDERICKSBRG* MOSUNNY   80  53  39 W6        29.98F
STAFFORD*      PTSUNNY   79  51  37 W3        30.03F

$$

NCZ024-NYZ072-PAZ021-071-VAZ022-071-272300-
OTHER REGIONAL OBSERVATIONS

CITY           SKY/WX    TMP DP  RH WIND       PRES   REMARKS
NEW YORK CITY  PTSUNNY   73  54  51 CALM      29.95S
PHILADELPHIA   MOSUNNY   79  48  33 W14G23    29.95S
PITTSBURGH     PTSUNNY   67  47  48 NW10      30.07F
ROANOKE        MOSUNNY   77  44  30 W10       30.08S
RICHMOND       CLOUDY    81  52  36 SW14      29.99F
RALEIGH        CLOUDY    78  53  41 NW6       30.05S

$$

ANZ530>537-272300-
MARINE OBSERVATIONS

STATION/POSITION TIME  TEMP    WIND        PRES
                       AIR SEA DIR/SP/G
                 (UTC) (F)     (DEG/KT/KT) (MB)
THOMAS PT LIGHT  2200   75 78  200/  7/  8   N/A
BALT KEY BRIDGE  2148   77     290/ 11/ 13 1014.6R
COVE POINT       2148   76     150/  5/  6 1015.7F
LEWISETTA        2148   77 80  130/  5/  6 1014.8F
SOLOMONS ISLAND  2148   76 80  100/  3/  5   N/A
PINEY POINT      2148           10/ 15/ 16   N/A

$$





USA.gov is the U.S. government's official web portal to all federal, state and local government web resources and services.